Flag for Denmark Weather past 2 weeks in Copenhagen, Denmark

Now
54 °F

Passing clouds.


Feels Like: 53 °F
Forecast: 52 / 57 °F
Wind: 5 mph from Southeast

Location: Koebenhavn-Kastrup Airport

Current Time: Sep 23, 2014 at 3:14:57 PM

Latest Report: Sep 23, 2014 at 2:20 PM


Visibility: N/A

Pressure: 30.07 "Hg

Humidity: 51%

Dew point: 36 °F

Location of CopenhagenLocation

Historic Weather in Copenhagen — Graph

°F

Copenhagen temperature yesterday

Maximum temperature yesterday: 55 °F (at 12:20 AM)
Minimum temperature yesterday: 50 °F (at 5:20 AM)
Average temperature yesterday: 52 °F

Past Weeks' High & Low Weather Summary

 TemperatureHumidityPressure
High70 °F (Sep 19, 3:50 PM)100% (Sep 10, 12:50 AM)30.30 "Hg (Sep 10, 12:50 AM)
Low41 °F (Sep 23, 6:20 AM)46% (Sep 23, 8:50 AM)29.68 "Hg (Sep 22, 3:20 AM)
Average59 °F83%30.07 "Hg
* Reported Sep 8 1:20 PM — Sep 23 1:50 PM, Copenhagen, Weather by CustomWeather, © 2014

Note: Actual official high and low records may vary slightly from our data, if they occured in-between our weather recording intervals... More about our weather records

Advertising

Copenhagen weather history for previous 24 hours

 ConditionsComfort  
Time TempWeatherWind HumidityBarometerVisibility
1:50 PM
Sep 23
52 °FSunny.3 mph54%30.07 "Hg10 mi
1:20 PM52 °FSunny.3 mph47%30.07 "Hg10 mi
12:50 PM52 °FPassing clouds.6 mph50%30.09 "HgN/A
12:20 PM50 °FPassing clouds.6 mph50%30.09 "HgN/A
11:50 AM52 °FSunny.3 mph47%30.09 "Hg10 mi
11:20 AM50 °FPassing clouds.6 mph50%30.07 "HgN/A
10:50 AM50 °FSunny.7 mph50%30.07 "Hg10 mi
10:20 AM48 °FPassing clouds.6 mph54%30.09 "HgN/A
9:50 AM48 °FPassing clouds.7 mph58%30.09 "HgN/A
9:20 AM48 °FPassing clouds.8 mph54%30.07 "HgN/A
8:50 AM48 °FSunny.8 mph46%30.07 "Hg10 mi
8:20 AM48 °FSunny.10 mph54%30.07 "Hg10 mi
7:50 AM45 °FClear.10 mph76%30.07 "Hg10 mi
7:20 AM43 °FClear.9 mph76%30.07 "Hg10 mi
6:50 AM43 °FClear.10 mph71%30.04 "Hg10 mi
6:20 AM41 °FPassing clouds.6 mph76%30.04 "HgN/A
5:50 AM45 °FClear.10 mph71%30.04 "Hg10 mi
5:20 AM43 °FPassing clouds.7 mph71%30.04 "HgN/A
4:50 AM43 °FClear.7 mph71%30.04 "Hg10 mi
4:20 AM45 °FClear.8 mph66%30.04 "Hg10 mi
3:50 AM46 °FClear.13 mph62%30.04 "Hg10 mi
3:20 AM46 °FClear.13 mph62%30.01 "Hg10 mi
2:50 AM48 °FClear.16 mph54%30.01 "Hg10 mi
2:20 AM48 °FClear.17 mph54%30.01 "Hg10 mi
1:50 AM48 °FClear.20 mph54%30.01 "Hg10 mi
1:20 AM48 °FClear.20 mph58%30.01 "Hg10 mi
12:50 AM50 °FClear.17 mph54%30.01 "Hg10 mi
12:20 AM50 °FClear.20 mph58%30.01 "Hg10 mi
11:50 PM
Sep 22
50 °FClear.18 mph58%29.98 "Hg10 mi
11:20 PM50 °FPassing clouds.22 mph58%29.98 "HgN/A
10:50 PM52 °FPassing clouds.22 mph50%29.98 "HgN/A
10:20 PM52 °FPassing clouds.24 mph50%29.98 "HgN/A
9:50 PM52 °FPassing clouds.25 mph54%29.98 "HgN/A
9:20 PM52 °FPassing clouds.24 mph54%29.95 "HgN/A
8:50 PM52 °FPartly cloudy.29 mph58%29.95 "HgN/A
8:20 PM50 °FPassing clouds.24 mph67%29.95 "HgN/A
7:50 PM50 °FPartly sunny.24 mph71%29.92 "HgN/A
7:20 PM50 °FBroken clouds.26 mph76%29.92 "HgN/A
6:50 PM52 °FBroken clouds.26 mph72%29.89 "HgN/A
6:20 PM52 °FBroken clouds.26 mph72%29.89 "HgN/A
5:50 PM52 °FPartly sunny.29 mph72%29.86 "HgN/A
5:20 PM52 °FPartly sunny.26 mph72%29.86 "HgN/A
4:50 PM52 °FPartly sunny.29 mph72%29.83 "HgN/A
4:20 PM52 °FBroken clouds.28 mph72%29.83 "HgN/A
3:50 PM54 °FPartly sunny.26 mph67%29.80 "HgN/A
3:20 PM54 °FBroken clouds.30 mph72%29.80 "HgN/A
Weather by CustomWeather, © 2014

See weather overviewHow to use our weather pages